Location: Clanezzo
(45.7500°N, 9.6000°E)
Time: 05:25:08
(UTC+00:00)

Gbstr 26 Del rocket - Pass Details

Date: 30 September 2021
Orbit: 492 x 1263 km, 51.8° (Epoch: 20 October)

Event Time Altitude Azimuth Distance (km) Brightness Sun altitude
Rises 22:40:00 0° 291° (WNW) 4,132 7.6 -46.9°
Reaches altitude 10° 22:42:49 10° 294° (WNW) 3,212 6.9 -47.0°
Enters shadow 22:44:16 17° 297° (WNW) 2,755 6.5 -47.0°
